User: anonymous   Login
Location: Azul
(36.7830°S, 59.8500°W)
Time: 02:16:47
(UTC-03:00)
Language:

CUBEBUG 2 - Orbit

View from above orbital plane
View from above orbital plane
View from above satellite
View from above satellite

Ground track
Ground track

The orbit data is extracted from the following two-line orbital elements,

1 39440U 13066AA  21295.53684149  .00000365  00000-0  57112-4 0  9999
2 39440  97.6929 258.7176 0079486 182.1912 177.8962 14.76355411425174
Epoch (UTC): 22 October 2021 12:53:03
Eccentricity: 0.0079486
inclination: 97.6929°
perigee height: 585 km
apogee height: 696 km
right ascension of ascending node: 258.7176°
argument of perigee: 182.1912°
revolutions per day: 14.76355411
mean anomaly at epoch: 177.8962°
orbit number at epoch: 42517

The dashed part of the orbit path shows where the satellite is in the earth's shadow,  

DLR